FDX122 EGKK-EDDL

Flight info

Callsign FDX122
Flight time 0h 52m
Altitude 23000
Route DVR L9 KONAN/N0462F290 DCT KOK UL607 SPI Y862 KENUM M170 NVO T857 BIKMU BIKMU1A
Aircraft A306/H-SDE3FGHIRWY/LB1

Departure

Time 2026-05-08 05:50
Airport London Gatwick Airport (EGKK)

Arrival

Time 2026-05-08 06:42
Airport Düsseldorf Airport (EDDL)
Time Latitude Longitude Altitude Speed Heading
2026-05-08 05:32 51.15667 -0.18825 214 ft 0 kts 348°
2026-05-08 05:39 51.15653 -0.18820 219 ft 2 kts 348°
2026-05-08 05:40 51.15639 -0.18816 210 ft 2 kts 348°
2026-05-08 05:40 51.15627 -0.18812 218 ft 2 kts 347°
2026-05-08 05:40 51.15613 -0.18805 212 ft 2 kts 329°
2026-05-08 05:40 51.15601 -0.18791 218 ft 2 kts 307°
2026-05-08 05:41 51.15594 -0.18770 223 ft 2 kts 278°
2026-05-08 05:41 51.15594 -0.18755 220 ft 0 kts 258°
2026-05-08 05:44 51.15593 -0.18757 221 ft 3 kts 258°
2026-05-08 05:44 51.15548 -0.18819 217 ft 11 kts 187°
2026-05-08 05:44 51.15456 -0.18791 214 ft 15 kts 167°
2026-05-08 05:44 51.15357 -0.18754 215 ft 14 kts 167°
2026-05-08 05:45 51.15268 -0.18723 213 ft 12 kts 167°
2026-05-08 05:45 51.15184 -0.18694 213 ft 14 kts 169°
2026-05-08 05:45 51.15119 -0.18778 214 ft 16 kts 255°
2026-05-08 05:45 51.15094 -0.18958 216 ft 16 kts 257°
2026-05-08 05:46 51.15067 -0.19155 214 ft 21 kts 258°
2026-05-08 05:46 51.15037 -0.19374 217 ft 20 kts 258°
2026-05-08 05:46 51.15006 -0.19598 212 ft 20 kts 257°
2026-05-08 05:46 51.14975 -0.19824 218 ft 24 kts 258°
2026-05-08 05:47 51.14938 -0.20097 216 ft 25 kts 257°
2026-05-08 05:47 51.14902 -0.20357 215 ft 23 kts 257°
2026-05-08 05:47 51.14868 -0.20601 213 ft 19 kts 257°
2026-05-08 05:47 51.14792 -0.20674 215 ft 15 kts 199°
2026-05-08 05:48 51.14707 -0.20694 217 ft 8 kts 177°
2026-05-08 05:48 51.14651 -0.20688 214 ft 8 kts 173°
2026-05-08 05:48 51.14600 -0.20663 217 ft 10 kts 135°
2026-05-08 05:48 51.14597 -0.20567 213 ft 0 kts 77°
2026-05-08 05:49 51.14636 -0.20285 213 ft 58 kts 77°
2026-05-08 05:49 51.14769 -0.19326 213 ft 117 kts 77°
2026-05-08 05:49 51.14981 -0.17794 217 ft 166 kts 77°
2026-05-08 05:50 51.15241 -0.15889 721 ft 175 kts 79°
2026-05-08 05:50 51.15471 -0.14069 1686 ft 164 kts 81°
2026-05-08 05:50 51.15707 -0.12281 2297 ft 172 kts 81°
2026-05-08 05:50 51.15971 -0.10266 2591 ft 200 kts 80°
2026-05-08 05:51 51.16277 -0.07936 2871 ft 229 kts 80°
2026-05-08 05:51 51.16617 -0.05316 3200 ft 251 kts 80°
2026-05-08 05:51 51.16945 -0.02508 3784 ft 261 kts 81°
2026-05-08 05:51 51.17226 0.00363 4630 ft 263 kts 83°
2026-05-08 05:52 51.17454 0.03271 5486 ft 266 kts 84°
2026-05-08 05:52 51.17625 0.06223 6359 ft 268 kts 86°
2026-05-08 05:52 51.17738 0.09214 7164 ft 273 kts 88°
2026-05-08 05:52 51.17790 0.12264 7928 ft 279 kts 90°
2026-05-08 05:53 51.17779 0.15341 8686 ft 285 kts 91°
2026-05-08 05:53 51.17699 0.18521 9325 ft 290 kts 94°
2026-05-08 05:53 51.17549 0.21769 10046 ft 296 kts 95°
2026-05-08 05:53 51.17348 0.25139 10415 ft 314 kts 96°
2026-05-08 05:54 51.17127 0.28703 10661 ft 333 kts 96°
2026-05-08 05:54 51.16921 0.32479 10927 ft 351 kts 93°
2026-05-08 05:54 51.16865 0.36463 11189 ft 368 kts 91°
2026-05-08 05:54 51.16858 0.40628 11512 ft 381 kts 90°
2026-05-08 05:55 51.16854 0.44886 12045 ft 387 kts 90°
2026-05-08 05:55 51.16846 0.49154 12645 ft 390 kts 91°
2026-05-08 05:55 51.16834 0.53556 13291 ft 394 kts 91°
2026-05-08 05:55 51.16820 0.57926 13896 ft 397 kts 91°
2026-05-08 05:56 51.16803 0.62344 14481 ft 400 kts 91°
2026-05-08 05:56 51.16783 0.66793 15056 ft 403 kts 91°
2026-05-08 05:56 51.16762 0.71227 15654 ft 406 kts 91°
2026-05-08 05:56 51.16739 0.75748 16243 ft 409 kts 92°
2026-05-08 05:57 51.16714 0.80310 16928 ft 412 kts 92°
2026-05-08 05:57 51.16687 0.84881 17492 ft 415 kts 92°
2026-05-08 05:57 51.16658 0.89491 18050 ft 417 kts 92°
2026-05-08 05:57 51.16627 0.94132 18558 ft 420 kts 92°
2026-05-08 05:58 51.16594 0.98820 18994 ft 424 kts 92°
2026-05-08 05:58 51.16560 1.03554 19439 ft 427 kts 92°
2026-05-08 05:58 51.16523 1.08296 19868 ft 430 kts 92°
2026-05-08 05:58 51.16482 1.13076 20298 ft 433 kts 92°
2026-05-08 05:59 51.16440 1.17880 20717 ft 435 kts 92°
2026-05-08 05:59 51.16395 1.22719 21114 ft 438 kts 92°
2026-05-08 05:59 51.16349 1.27596 21530 ft 441 kts 92°
2026-05-08 05:59 51.16300 1.32418 21922 ft 444 kts 92°
2026-05-08 06:00 51.16223 1.37365 22316 ft 446 kts 94°
2026-05-08 06:00 51.16048 1.42328 22708 ft 449 kts 95°
2026-05-08 06:00 51.15811 1.47301 23022 ft 451 kts 96°
2026-05-08 06:00 51.15550 1.52276 23073 ft 448 kts 96°
2026-05-08 06:01 51.15286 1.57207 23085 ft 444 kts 96°
2026-05-08 06:01 51.15027 1.62094 23083 ft 443 kts 96°
2026-05-08 06:01 51.14772 1.66989 23080 ft 443 kts 96°
2026-05-08 06:01 51.14523 1.71864 23076 ft 443 kts 96°
2026-05-08 06:02 51.14274 1.76760 23076 ft 442 kts 96°
2026-05-08 06:02 51.14027 1.81633 23075 ft 442 kts 96°
2026-05-08 06:02 51.13781 1.86460 23074 ft 442 kts 96°
2026-05-08 06:02 51.13529 1.91362 23076 ft 442 kts 96°
2026-05-08 06:03 51.13278 1.96223 23072 ft 439 kts 96°
2026-05-08 06:03 51.13028 2.01026 23078 ft 432 kts 96°
2026-05-08 06:03 51.12778 2.05778 23075 ft 430 kts 96°
2026-05-08 06:03 51.12525 2.10528 23075 ft 430 kts 96°
2026-05-08 06:04 51.12354 2.13724 23069 ft 430 kts 96°
2026-05-08 06:04 51.12014 2.20008 23078 ft 430 kts 96°
2026-05-08 06:04 51.11843 2.23150 23075 ft 430 kts 97°
2026-05-08 06:04 51.11582 2.27897 23079 ft 430 kts 97°
2026-05-08 06:05 51.11321 2.32638 23085 ft 430 kts 97°
2026-05-08 06:05 51.11058 2.37380 23078 ft 430 kts 97°
2026-05-08 06:05 51.10792 2.42121 23084 ft 430 kts 97°
2026-05-08 06:05 51.10525 2.46862 23086 ft 430 kts 97°
2026-05-08 06:06 51.10256 2.51606 23089 ft 430 kts 97°
2026-05-08 06:06 51.09984 2.56370 23086 ft 430 kts 97°
2026-05-08 06:06 51.09711 2.61106 23090 ft 431 kts 97°
2026-05-08 06:06 51.09231 2.65803 23102 ft 429 kts 104°
2026-05-08 06:07 51.08527 2.70416 23098 ft 429 kts 106°
2026-05-08 06:07 51.07751 2.74991 23097 ft 428 kts 107°
2026-05-08 06:07 51.06942 2.79494 23099 ft 428 kts 108°
2026-05-08 06:07 51.06103 2.84048 23094 ft 428 kts 108°
2026-05-08 06:08 51.05260 2.88588 23096 ft 428 kts 108°
2026-05-08 06:08 51.04419 2.93126 23094 ft 429 kts 108°
2026-05-08 06:08 51.03578 2.97673 23094 ft 429 kts 108°
2026-05-08 06:08 51.02740 3.02218 23088 ft 429 kts 108°
2026-05-08 06:09 51.01901 3.06776 23086 ft 429 kts 108°
2026-05-08 06:09 51.01064 3.11320 23088 ft 429 kts 108°
2026-05-08 06:09 51.00233 3.15822 23088 ft 429 kts 108°
2026-05-08 06:09 50.99390 3.20375 23081 ft 429 kts 108°
2026-05-08 06:10 50.98548 3.24914 23074 ft 429 kts 108°
2026-05-08 06:10 50.97701 3.29464 23072 ft 429 kts 108°
2026-05-08 06:10 50.96856 3.33996 23070 ft 429 kts 108°
2026-05-08 06:10 50.96007 3.38535 23071 ft 429 kts 108°
2026-05-08 06:11 50.95153 3.43088 23074 ft 429 kts 108°
2026-05-08 06:11 50.94300 3.47632 23073 ft 429 kts 108°
2026-05-08 06:11 50.93444 3.52173 23071 ft 429 kts 108°
2026-05-08 06:11 50.92589 3.56703 23072 ft 429 kts 108°
2026-05-08 06:12 50.91744 3.61174 23072 ft 429 kts 108°
2026-05-08 06:12 50.90883 3.65704 23073 ft 429 kts 108°
2026-05-08 06:12 50.90015 3.70230 23071 ft 429 kts 109°
2026-05-08 06:12 50.89144 3.74756 23071 ft 429 kts 109°
2026-05-08 06:13 50.88269 3.79279 23073 ft 429 kts 109°
2026-05-08 06:13 50.87393 3.83799 23068 ft 430 kts 109°
2026-05-08 06:13 50.86514 3.88320 23076 ft 430 kts 109°
2026-05-08 06:13 50.85634 3.92845 23075 ft 430 kts 109°
2026-05-08 06:14 50.84752 3.97365 23080 ft 430 kts 109°
2026-05-08 06:14 50.83867 4.01897 23080 ft 430 kts 109°
2026-05-08 06:14 50.82983 4.06417 23084 ft 430 kts 109°
2026-05-08 06:14 50.82095 4.10941 23087 ft 430 kts 109°
2026-05-08 06:15 50.81204 4.15470 23086 ft 431 kts 109°
2026-05-08 06:15 50.80314 4.19977 23092 ft 431 kts 109°
2026-05-08 06:15 50.79421 4.24493 23092 ft 431 kts 109°
2026-05-08 06:15 50.78525 4.29012 23094 ft 431 kts 109°
2026-05-08 06:16 50.77628 4.33528 23094 ft 431 kts 109°
2026-05-08 06:16 50.76729 4.38044 23093 ft 431 kts 109°
2026-05-08 06:16 50.75838 4.42509 23094 ft 431 kts 109°
2026-05-08 06:16 50.74936 4.47021 23095 ft 431 kts 109°
2026-05-08 06:17 50.73124 4.56048 23093 ft 431 kts 109°
2026-05-08 06:17 50.72218 4.60561 23090 ft 431 kts 109°
2026-05-08 06:17 50.71326 4.65094 23089 ft 432 kts 108°
2026-05-08 06:18 50.70448 4.69623 23086 ft 432 kts 108°
2026-05-08 06:18 50.69574 4.74153 23082 ft 432 kts 108°
2026-05-08 06:18 50.68698 4.78684 23082 ft 432 kts 108°
2026-05-08 06:18 50.67818 4.83227 23081 ft 432 kts 108°
2026-05-08 06:19 50.66938 4.87753 23076 ft 432 kts 108°
2026-05-08 06:19 50.66051 4.92271 23077 ft 432 kts 109°
2026-05-08 06:19 50.65141 4.96785 23081 ft 432 kts 109°
2026-05-08 06:19 50.64218 5.01292 23083 ft 432 kts 109°
2026-05-08 06:20 50.63287 5.05798 23086 ft 432 kts 109°
2026-05-08 06:20 50.62355 5.10303 23089 ft 433 kts 109°
2026-05-08 06:20 50.61421 5.14809 23091 ft 433 kts 109°
2026-05-08 06:20 50.60486 5.19311 23096 ft 433 kts 109°
2026-05-08 06:21 50.59553 5.23807 23098 ft 433 kts 109°
2026-05-08 06:21 50.58614 5.28323 23098 ft 433 kts 109°
2026-05-08 06:21 50.57676 5.32830 23101 ft 433 kts 109°
2026-05-08 06:21 50.56751 5.37260 23102 ft 433 kts 109°
2026-05-08 06:22 50.55809 5.41761 23101 ft 433 kts 109°
2026-05-08 06:22 50.54865 5.46260 23103 ft 433 kts 109°
2026-05-08 06:22 50.53920 5.50761 23100 ft 434 kts 109°
2026-05-08 06:22 50.52999 5.55275 23094 ft 434 kts 106°
2026-05-08 06:23 50.52528 5.59983 23094 ft 436 kts 93°
2026-05-08 06:23 50.52785 5.64704 23093 ft 436 kts 77°
2026-05-08 06:23 50.53788 5.69225 23107 ft 439 kts 67°
2026-05-08 06:23 50.55093 5.73622 23091 ft 448 kts 63°
2026-05-08 06:24 50.56562 5.77997 23090 ft 457 kts 61°
2026-05-08 06:24 50.58120 5.82421 23090 ft 465 kts 60°
2026-05-08 06:24 50.59702 5.86885 23083 ft 469 kts 60°
2026-05-08 06:24 50.61283 5.91397 23078 ft 470 kts 60°
2026-05-08 06:25 50.62842 5.95920 23084 ft 470 kts 61°
2026-05-08 06:25 50.64367 6.00403 23088 ft 470 kts 61°
2026-05-08 06:25 50.65887 6.04913 23081 ft 457 kts 62°
2026-05-08 06:25 50.67341 6.09257 23088 ft 440 kts 62°
2026-05-08 06:26 50.68758 6.13502 23092 ft 436 kts 62°
2026-05-08 06:26 50.70172 6.17728 23090 ft 436 kts 62°
2026-05-08 06:26 50.71578 6.21940 23029 ft 430 kts 63°
2026-05-08 06:26 50.72796 6.26163 22336 ft 416 kts 66°
2026-05-08 06:27 50.73925 6.30356 21007 ft 416 kts 67°
2026-05-08 06:27 50.75015 6.34592 19764 ft 415 kts 68°
2026-05-08 06:27 50.76072 6.38801 18796 ft 409 kts 68°
2026-05-08 06:27 50.77105 6.42952 17698 ft 403 kts 68°
2026-05-08 06:28 50.78101 6.46957 17084 ft 390 kts 68°
2026-05-08 06:28 50.79089 6.50922 16540 ft 385 kts 68°
2026-05-08 06:28 50.80066 6.54834 16008 ft 380 kts 68°
2026-05-08 06:28 50.81182 6.58570 15476 ft 375 kts 57°
2026-05-08 06:29 50.82835 6.61708 14972 ft 369 kts 40°
2026-05-08 06:29 50.84997 6.63820 14450 ft 363 kts 20°
2026-05-08 06:29 50.87403 6.64945 13924 ft 358 kts 12°
2026-05-08 06:29 50.89843 6.65653 13365 ft 355 kts
2026-05-08 06:30 50.92274 6.66143 12871 ft 349 kts
2026-05-08 06:30 50.94668 6.66551 12571 ft 340 kts
2026-05-08 06:30 50.96973 6.66914 12569 ft 324 kts
2026-05-08 06:30 50.99096 6.66435 12557 ft 306 kts 338°
2026-05-08 06:31 51.00856 6.64718 12407 ft 293 kts 314°
2026-05-08 06:31 51.02124 6.62256 12182 ft 286 kts 304°
2026-05-08 06:31 51.03252 6.59649 11835 ft 284 kts 303°
2026-05-08 06:31 51.04352 6.57057 11483 ft 283 kts 303°
2026-05-08 06:32 51.05442 6.54485 10913 ft 279 kts 303°
2026-05-08 06:32 51.06525 6.51923 10283 ft 279 kts 303°
2026-05-08 06:32 51.07609 6.49355 9612 ft 278 kts 303°
2026-05-08 06:32 51.08677 6.46815 8987 ft 275 kts 303°
2026-05-08 06:33 51.09734 6.44297 8375 ft 272 kts 303°
2026-05-08 06:33 51.10775 6.41806 7794 ft 268 kts 303°
2026-05-08 06:33 51.11794 6.39351 7225 ft 264 kts 303°
2026-05-08 06:33 51.12795 6.36920 6664 ft 260 kts 303°
2026-05-08 06:34 51.13774 6.34523 6083 ft 257 kts 303°
2026-05-08 06:34 51.14740 6.32139 5489 ft 254 kts 303°
2026-05-08 06:34 51.15706 6.29794 4882 ft 253 kts 308°
2026-05-08 06:34 51.17035 6.28063 4211 ft 251 kts 336°
2026-05-08 06:35 51.18748 6.27593 3728 ft 254 kts
2026-05-08 06:35 51.20388 6.28530 3404 ft 252 kts 32°
2026-05-08 06:35 51.21802 6.30158 3111 ft 249 kts 42°
2026-05-08 06:35 51.22852 6.32318 3005 ft 248 kts 66°
2026-05-08 06:36 51.23131 6.34981 3003 ft 247 kts 98°
2026-05-08 06:36 51.22603 6.37582 3008 ft 248 kts 114°
2026-05-08 06:36 51.21844 6.40063 3002 ft 247 kts 117°
2026-05-08 06:36 51.21081 6.42420 3017 ft 230 kts 117°
2026-05-08 06:37 51.20375 6.44598 3013 ft 213 kts 117°
2026-05-08 06:37 51.19707 6.46668 3006 ft 208 kts 117°
2026-05-08 06:37 51.19057 6.48696 3003 ft 208 kts 117°
2026-05-08 06:37 51.18405 6.50753 2997 ft 208 kts 115°
2026-05-08 06:38 51.18149 6.52975 2999 ft 207 kts 81°
2026-05-08 06:38 51.18557 6.55174 3006 ft 207 kts 66°
2026-05-08 06:38 51.19306 6.57133 2997 ft 208 kts 52°
2026-05-08 06:38 51.20205 6.58939 2794 ft 208 kts 52°
2026-05-08 06:39 51.21078 6.60771 2473 ft 207 kts 53°
2026-05-08 06:39 51.21943 6.62598 2180 ft 205 kts 53°
2026-05-08 06:39 51.22804 6.64398 1898 ft 201 kts 53°
2026-05-08 06:39 51.23629 6.66124 1653 ft 190 kts 53°
2026-05-08 06:40 51.24404 6.67746 1412 ft 178 kts 53°
2026-05-08 06:40 51.25122 6.69252 1174 ft 162 kts 53°
2026-05-08 06:40 51.25783 6.70638 941 ft 159 kts 53°
2026-05-08 06:40 51.26452 6.72042 705 ft 158 kts 53°
2026-05-08 06:41 51.27111 6.73422 506 ft 153 kts 53°
2026-05-08 06:41 51.27745 6.74757 280 ft 148 kts 53°
2026-05-08 06:41 51.28366 6.76049 141 ft 142 kts 53°
2026-05-08 06:41 51.28895 6.77157 146 ft 109 kts 53°
2026-05-08 06:42 51.29293 6.77994 155 ft 80 kts 52°
2026-05-08 06:42 51.29476 6.78379 154 ft 26 kts 53°
2026-05-08 06:42 51.29458 6.78474 154 ft 9 kts 175°
2026-05-08 06:42 51.29387 6.78464 153 ft 11 kts 198°
2026-05-08 06:43 51.29344 6.78422 153 ft 0 kts 216°
2026-05-08 06:43 51.29335 6.78412 153 ft 5 kts 216°
2026-05-08 06:43 51.29301 6.78373 152 ft 9 kts 215°
2026-05-08 06:44 51.29250 6.78315 151 ft 9 kts 215°
2026-05-08 06:44 51.29203 6.78261 152 ft 9 kts 217°
2026-05-08 06:44 51.29140 6.78209 151 ft 12 kts 186°
2026-05-08 06:44 51.29053 6.78201 147 ft 14 kts 183°
2026-05-08 06:45 51.28966 6.78254 142 ft 10 kts 158°
2026-05-08 06:45 51.28901 6.78215 140 ft 10 kts 230°
2026-05-08 06:45 51.28858 6.78128 140 ft 10 kts 232°
2026-05-08 06:45 51.28806 6.78020 139 ft 13 kts 233°
2026-05-08 06:46 51.28754 6.77912 139 ft 13 kts 232°
2026-05-08 06:46 51.28700 6.77798 138 ft 13 kts 233°
2026-05-08 06:46 51.28669 6.77679 139 ft 11 kts 265°
2026-05-08 06:46 51.28644 6.77569 140 ft 11 kts 233°
2026-05-08 06:47 51.28599 6.77474 140 ft 10 kts 233°
2026-05-08 06:47 51.28557 6.77398 140 ft 5 kts 202°
2026-05-08 06:47 51.28536 6.77411 139 ft 5 kts 147°
2026-05-08 06:47 51.28507 6.77446 139 ft 5 kts 141°
2026-05-08 06:48 51.28501 6.77452 139 ft 0 kts 141°